Regional Weather Roundup
Issued by NWS Albany, NY

Home | Current Version | Previous Version | Text Only | Print | Product List | Glossary On
Versions: 1 2 3 4 5 6 7 8 9 10 11 12 13 14 15 16 17 18 19 20 21 22 23 24 25 26 27 28 29 30 31 32 33 34 35 36 37 38 39 40 41 42 43 44 45 46 47 48 49 50
000
ASUS41 KALY 230710
RWRALY

NEW YORK STATE HOURLY WEATHER ROUNDUP
NATIONAL WEATHER SERVICE ALBANY NY
300 AM EDT MON OCT 23 2017

NOTE: "FAIR" INDICATES FEW OR NO CLOUDS BELOW 12,000 FEET WITH NO
SIGNIFICANT WEATHER AND/OR NO OBSTRUCTIONS TO VISIBILITY.

NYZ032-033-038>043-046>054-057>066-NYZ062>081-082-084-230800-
EAST


CITY           SKY/WX    TMP DP  RH WIND       PRES   REMARKS
ALBANY         CLOUDY    50  43  77 CALM      30.30F
GLENS FALLS    CLEAR     40  39  97 CALM      30.29F
POUGHKEEPSIE   CLEAR     46  43  89 CALM      30.33F
NEWBURGH       PTCLDY    48  46  93 CALM      30.34F
MONTGOMERY     MOCLDY    46  44  93 CALM      30.33F
WHITE PLAINS   FOG       55  55 100 CALM      30.33F VSB 1/4
ISLIP          FOG       52  52 100 E3        30.34F VSB 1/4
NEW YORK CITY  MOCLDY    61  59  93 SE5       30.33F
CENTRAL PARK   MOCLDY    62  59  90 S5        30.36F
$$

NYZ005>009-017-018-044>046-055-056-230800-
CENTRAL


CITY           SKY/WX    TMP DP  RH WIND       PRES   REMARKS
FULTON         CLEAR     60  44  55 SE5       30.19S
SYRACUSE       PTCLDY    60  45  57 SE8       30.20S
ROME           CLEAR     52  45  77 SE5       30.26F
ELMIRA         CLOUDY    51  47  86 CALM      30.23S
BINGHAMTON     CLOUDY    54  43  66 S8        30.26F
MONTICELLO     MOCLDY    51  47  86 S6        30.34S
$$

NYZ026>034-041>043-087-230800-
NORTH


CITY           SKY/WX    TMP DP  RH WIND       PRES   REMARKS
WATERTOWN      CLEAR     62  45  53 S10       30.17S
FORT DRUM      NOT AVBL
OGDENSBURG     FAIR      61  45  56 S7        30.17S
MASSENA        PTCLDY    44  43  96 CALM      30.20R
SARANAC LAKE   CLEAR     35  35 100 CALM      30.24S
PLATTSBURGH    CLEAR     44  42  93 CALM      30.22F
$$

NYZ001>004-010>016-019>021-085-230800-
WEST


CITY           SKY/WX    TMP DP  RH WIND       PRES   REMARKS
NIAGARA FALLS  PTCLDY    64  52  64 S6        30.09F
BUFFALO        MOCLDY    63  52  67 S7        30.10S
DUNKIRK        MOCLDY    66  53  63 S20G29    30.10R
JAMESTOWN      CLOUDY    60  53  77 S9G18     30.16F
WELLSVILLE     PTCLDY    59  49  69 S10G21    30.22F
ROCHESTER      PTCLDY    63  51  65 S10       30.14F
PENN YAN       CLOUDY    60  46  59 S7        30.20S
$$

             KEY
       WCI = WIND CHILL INDEX
       VSB = VISIBILITY
       HX  = HEAT INDEX
$$



USA.gov is the U.S. government's official web portal to all federal, state and local government web resources and services.